EHI
2 7 13 11 4 0 0 0 0 1 1 0 0 0 0 0 0 0 0 0 0 0 0 0 0 0 0 0 0 0 0 0 0 0 0 0 0 0 0 0 0 0 0
2 6 11 11 5 1 0 0 0 1 2 1 0 0 0 0 0 0 0 0 0 0 0 0 0 0 0 0 0 0 0 0 0 0 0 0 0 0 0 0 0 0 0
1 4 8 10 6 2 0 0 0 1 2 1 0 0 0 0 0 0 0 0 0 0 0 0 1 0 0 0 0 0 0 0 0 0 0 0 0 0 0 0 0 0 0
1 3 6 9 8 4 1 0 0 0 1 1 0 0 0 0 0 0 0 1 1 1 0 0 0 0 0 0 0 0 0 0 0 0 0 0 0 0 0 0 0 0 0
1 2 6 10 9 4 2 1 1 0 0 0 0 0 0 0 0 0 0 1 2 1 0 0 0 0 0 0 0 0 0 0 0 0 0 0 0 0 0 0 0 0 0
0 2 6 9 7 4 3 3 3 2 1 0 0 0 1 1 1 0 0 1 1 1 0 0 0 0 0 0 0 0 0 0 0 0 0 0 0 0 0 0 0 0 0
0 1 4 6 5 3 3 4 5 4 3 1 0 0 1 1 1 0 0 1 1 0 0 0 0 0 0 0 0 0 0 0 0 0 0 0 0 0 0 0 0 0 0
0 0 1 3 3 2 3 4 5 4 3 1 0 0 0 0 0 0 0 1 0 0 0 0 0 0 0 0 0 0 0 0 0 0 0 0 0 0 0 0 0 0 0
1 1 1 2 2 3 3 3 3 2 1 1 0 0 0 0 0 0 0 0 0 0 0 0 0 0 0 0 0 0 0 0 0 0 0 0 0 0 0 0 0 0 0
3 2 2 2 3 3 3 2 1 0 0 0 0 0 0 0 0 1 0 0 0 0 0 0 0 0 0 0 0 0 0 0 0 0 0 0 0 0 0 0 0 0 0
3 2 3 3 3 3 2 1 0 0 0 0 0 0 0 0 0 0 0 0 0 0 0 0 0 0 0 0 0 0 0 0 0 0 0 0 0 0 0 0 0 0 0
2 2 2 2 2 2 1 0 0 0 0 0 0 0 0 0 0 0 0 0 0 0 0 0 0 0 0 0 0 0 0 0 0 0 0 0 0 0 0 0 0 0 0
1 1 1 1 1 1 0 0 0 1 0 0 0 0 0 0 0 0 0 0 1 1 1 0 0 0 0 0 0 0 0 0 0 0 0 0 0 0 0 0 0 0 0
1 0 0 0 1 1 1 1 1 1 0 0 0 0 1 2 1 0 0 1 2 2 2 1 0 0 0 0 0 0 0 0 0 0 0 0 0 0 0 0 0 0 0
0 0 0 0 1 2 2 2 2 2 1 1 0 0 1 2 2 0 0 1 2 3 2 1 0 0 0 0 0 0 0 0 0 0 0 0 0 0 0 0 0 0 0
0 0 0 0 1 2 3 3 3 3 3 2 1 0 0 1 1 0 0 0 1 2 2 1 0 0 0 1 0 0 0 0 0 0 0 0 0 0 0 0 0 0 0
0 0 0 0 0 1 3 3 3 3 3 2 1 0 0 0 0 0 0 0 0 1 1 0 0 0 0 0 0 0 0 0 0 0 0 0 0 0 0 1 0 0 0
0 0 0 0 0 1 2 3 3 3 2 1 0 0 0 0 0 0 0 0 0 0 0 0 0 0 0 0 0 0 0 0 0 0 0 0 0 0 0 0 0 0 0
0 0 0 0 0 1 2 2 2 1 1 0 0 0 0 0 0 0 0 0 0 0 0 0 0 0 0 0 0 0 0 0 0 0 0 0 0 0 0 0 0 0 0
0 0 0 0 0 0 1 1 1 0 0 0 0 0 0 0 0 0 0 0 0 0 0 0 0 0 0 0 0 0 0 0 0 0 0 0 0 0 0 0 0 0 0
0 0 0 0 0 0 0 0 0 0 0 0 0 0 0 0 0 0 0 0 0 0 0 0 0 0 0 0 0 0 0 0 0 0 0 0 0 0 0 0 0 0 0
0 0 0 0 0 0 0 0 0 0 0 0 0 0 0 0 0 0 0 0 0 0 0 0 0 0 0 0 0 0 0 0 0 0 0 0 0 0 0 0 0 0 0
0 0 0 0 0 0 0 0 0 0 0 0 0 0 0 0 0 0 0 0 0 0 0 0 0 0 0 0 0 0 0 0 0 0 0 0 0 0 0 0 0 0 0
0 0 0 0 0 0 0 0 0 0 0 0 0 0 0 0 0 0 0 0 0 0 0 0 0 0 0 0 0 0 0 0 0 0 0 0 0 0 0 0 0 0 0
0 0 0 0 0 0 0 0 0 0 0 0 0 0 0 0 0 0 0 0 0 0 0 0 0 0 0 0 0 0 0 0 0 0 0 0 0 0 0 0 0 0 0
0 0 0 0 0 0 0 0 0 0 0 0 0 0 0 0 0 0 0 0 0 0 0 0 0 0 0 0 0 0 0 0 0 0 0 0 0 0 0 0 0 0 0
Wind_Speed
5 5 5 5 6 6 6 7 7 7 6 6 6 6 6 6 6 7 7 7 7 7 8 8 8 9 9 9 10 10 11 11 11 11 10 10 11 11 11 9 7 10 12
5 6 6 5 6 6 6 7 7 6 6 6 6 6 6 6 6 6 6 6 6 7 8 8 8 9 9 9 10 10 10 10 10 9 8 8 9 10 10 9 8 9 11
6 6 7 6 6 6 6 6 6 6 5 5 5 5 5 6 6 6 6 6 7 7 8 8 9 9 9 9 9 9 10 9 9 6 4 6 9 9 10 9 10 11 11
6 5 6 6 7 7 6 6 6 5 5 5 5 5 5 5 5 5 6 6 6 7 8 8 8 8 9 9 9 9 9 8 7 3 3 5 7 9 9 9 9 10 10
6 5 7 6 6 6 6 5 5 5 4 4 4 4 4 4 4 4 5 5 6 7 7 8 8 8 8 8 8 8 8 7 4 3 5 5 5 8 7 8 8 9 9
6 6 7 6 6 6 6 5 5 4 4 4 4 4 4 4 4 4 4 5 6 6 6 7 7 7 7 7 8 7 7 4 3 4 4 4 5 7 7 7 7 8 9
6 5 6 6 5 5 5 5 4 4 4 4 4 4 4 4 4 4 4 5 5 6 5 6 6 7 6 7 7 6 6 2 1 3 3 3 5 6 6 6 7 8 8
5 5 5 6 5 5 4 4 4 4 4 4 3 3 3 4 4 4 4 4 4 5 5 5 6 6 6 6 6 6 5 1 2 3 3 3 5 4 5 6 7 7 8
4 4 4 5 5 5 4 4 4 4 4 4 3 3 4 4 4 4 4 4 4 4 4 5 5 5 5 5 6 5 4 1 1 2 2 2 4 3 4 6 6 7 7
4 4 4 4 4 4 4 4 4 4 4 4 4 4 4 4 4 4 4 4 4 4 4 4 5 5 5 5 5 5 3 2 2 2 1 3 3 3 4 6 6 7 7
4 3 4 4 3 3 3 4 4 4 4 3 3 4 2 2 3 3 4 4 4 4 4 4 4 5 4 4 5 4 2 1 2 1 1 3 2 3 5 6 6 7 7
6 5 3 3 3 3 2 3 2 2 2 2 1 2 1 1 2 2 5 4 4 4 4 4 4 5 3 3 4 3 2 1 1 1 2 3 0 2 5 5 6 6 6
5 5 4 3 3 3 2 2 1 1 1 1 1 1 1 1 1 1 1 2 2 2 2 3 3 2 2 1 2 2 1 1 0 1 2 2 0 2 4 4 5 5 6
5 5 3 4 4 4 3 2 2 2 1 1 1 1 1 1 1 1 1 1 1 1 1 1 1 2 2 2 2 2 2 1 1 0 2 2 0 1 3 4 5 5 6
6 5 4 4 4 4 3 2 2 2 2 2 1 1 1 1 1 1 1 1 1 1 1 1 2 2 2 1 1 2 1 1 1 1 1 3 2 1 2 3 4 5 6
7 6 5 5 5 4 4 3 3 2 2 1 1 1 1 1 1 1 1 1 1 1 1 2 2 2 2 1 1 1 1 1 1 0 0 2 3 2 1 2 3 3 5
7 6 6 5 5 5 5 4 3 3 2 2 1 1 1 1 1 1 1 1 1 1 2 2 2 2 2 2 2 1 1 1 1 0 0 0 1 2 2 1 2 2 3
6 6 6 5 5 5 4 4 3 3 3 2 2 1 2 1 1 1 1 1 1 1 2 2 2 2 2 2 2 2 1 1 1 0 0 0 0 0 2 3 1 2 2
6 6 6 6 6 5 4 3 3 3 3 2 2 1 2 1 1 1 1 1 1 2 2 2 2 2 2 2 2 2 1 1 1 1 1 1 1 1 1 3 4 2 2
5 5 5 6 6 5 4 3 3 3 3 2 2 2 2 2 2 2 1 2 2 2 2 2 2 1 1 2 2 2 1 1 1 1 1 1 1 1 1 1 1 2 2
5 5 5 5 6 5 4 4 4 4 3 3 2 3 3 3 3 2 2 2 2 2 3 3 3 3 2 2 2 2 1 1 1 1 1 1 1 1 1 1 0 0 1
5 5 5 5 6 6 5 4 3 3 3 3 2 3 3 3 3 2 3 2 3 3 3 4 4 2 2 2 2 2 1 1 1 1 0 0 0 1 0 0 1 0 1
5 5 5 5 5 5 5 3 3 3 2 3 3 3 3 3 3 3 3 3 3 3 3 4 4 4 3 2 2 2 2 2 1 1 1 1 1 1 1 0 1 1 1
4 4 5 5 5 5 5 5 6 5 4 4 3 3 3 3 3 3 3 3 3 3 3 4 4 4 5 3 2 1 1 1 2 1 1 1 1 2 2 1 1 1 1
3 3 4 4 5 5 5 5 5 5 3 3 3 4 4 3 3 3 3 3 3 3 3 3 4 4 4 4 3 2 2 1 2 2 2 2 2 2 2 2 2 1 2
1 2 3 4 4 4 5 5 5 5 4 4 4 4 3 3 3 3 3 3 3 3 3 3 4 5 4 4 4 3 3 3 3 3 3 3 3 2 2 2 2 1 1
Wind_Direction
150 147 134 137 127 117 111 106 102 98 93 97 102 105 108 107 109 107 106 105 103 102 103 99 100 97 99 99 100 99 96 94 91 88 82 82 84 87 86 85 94 91 87
144 147 132 135 129 120 114 107 103 100 95 97 101 106 109 105 103 105 105 107 105 102 101 100 98 97 96 99 100 98 99 95 92 87 88 93 84 87 87 76 65 88 92
142 143 142 130 127 121 114 110 106 102 97 99 103 105 108 108 105 101 100 103 105 101 99 99 96 99 97 97 98 98 97 97 96 93 119 113 99 90 92 89 87 93 95
143 144 139 127 128 123 116 112 107 104 100 100 104 103 104 107 108 106 101 101 103 102 98 99 94 100 100 99 98 97 95 99 99 127 127 105 107 98 96 96 95 96 97
145 145 132 129 128 123 118 112 108 105 105 106 109 110 108 108 107 110 106 107 104 99 98 101 101 100 101 105 102 97 97 98 117 156 108 107 106 104 102 100 98 99 99
145 144 130 130 129 124 121 114 107 101 101 110 114 113 110 114 115 108 106 105 106 104 102 104 108 106 103 105 106 102 97 100 170 124 115 116 111 108 107 108 106 109 106
147 145 137 128 128 126 124 117 111 103 100 109 115 119 113 107 104 103 102 107 112 113 110 107 109 113 111 111 107 104 99 87 136 116 120 118 103 107 117 120 118 115 113
147 149 144 135 128 124 123 120 116 106 102 108 104 103 107 105 106 105 102 111 119 122 121 113 111 112 113 115 111 104 96 114 143 117 125 122 98 120 128 128 126 122 119
150 153 152 151 143 129 120 116 110 100 94 104 103 94 88 91 99 100 99 108 120 121 122 120 120 119 115 120 113 103 90 16 181 118 119 116 106 137 139 134 131 128 122
158 161 159 157 151 149 145 119 109 100 92 91 93 84 80 93 99 96 103 98 106 111 115 117 122 120 119 118 112 104 102 204 171 143 132 101 113 156 145 139 135 130 124
177 180 177 167 159 155 154 133 132 118 104 108 109 96 101 127 121 116 88 79 94 98 105 115 118 123 123 122 113 112 173 189 156 154 114 78 132 169 152 141 139 135 128
195 193 191 178 171 167 160 155 152 150 136 138 131 134 135 120 102 99 87 77 82 93 107 113 118 137 158 148 135 162 189 184 165 158 99 64 119 172 163 153 149 141 135
205 202 195 185 181 177 169 167 151 144 135 135 125 126 139 131 123 112 120 118 121 135 142 132 152 162 159 149 155 167 179 186 199 149 98 71 196 170 164 159 154 148 143
212 208 200 194 186 182 181 176 166 158 152 145 139 145 148 139 138 131 149 136 153 160 148 159 155 155 157 155 169 173 173 182 191 127 69 58 43 168 161 159 162 162 155
218 213 205 198 195 184 178 177 176 172 172 166 164 166 166 158 158 169 165 139 164 162 168 168 159 160 155 156 169 176 175 183 178 146 97 73 56 94 141 155 161 166 165
222 217 207 203 196 191 183 180 182 178 177 184 164 159 172 174 174 188 177 169 186 175 186 175 163 167 156 159 163 161 176 175 175 168 104 91 67 61 84 149 159 169 172
222 216 207 203 198 194 190 186 182 181 179 183 164 160 164 173 189 194 190 190 193 172 175 165 158 164 154 149 142 129 122 127 130 176 288 350 95 71 60 114 156 161 163
219 213 205 198 195 193 188 191 182 182 180 181 174 170 168 169 197 196 185 189 182 175 175 165 163 162 156 149 127 108 97 88 88 100 138 168 71 54 69 56 102 141 152
216 208 200 196 193 189 186 189 182 176 182 179 175 176 183 183 201 192 189 183 179 171 171 168 167 173 158 140 118 100 89 86 71 70 99 95 84 66 70 63 62 72 120
210 204 198 191 189 181 177 179 180 180 183 184 181 183 189 192 201 188 184 180 177 173 167 165 159 157 151 128 105 84 66 86 92 84 114 102 86 85 93 99 78 68 76
200 199 195 191 183 178 179 182 187 192 188 187 190 191 194 201 199 191 188 179 183 183 174 166 153 150 134 133 126 109 87 89 92 103 126 136 107 84 105 103 68 199 111
201 198 196 197 190 188 192 187 188 181 191 192 195 194 199 200 196 197 194 190 194 188 180 178 172 170 163 194 192 174 178 176 139 58 24 218 140 100 72 108 136 202 248
205 202 200 200 196 193 188 174 160 165 175 186 191 193 198 201 196 199 201 198 196 194 193 191 190 190 183 202 224 223 210 198 188 176 236 239 220 215 212 238 218 211 237
213 205 203 201 199 193 185 190 188 191 194 201 198 195 191 197 196 198 204 203 199 200 202 200 202 203 193 195 202 250 274 197 205 186 204 237 256 247 235 222 240 225 230
207 201 202 198 197 193 191 195 200 204 202 195 195 199 197 192 195 195 200 206 203 204 208 206 209 210 204 199 199 197 195 208 232 231 232 231 243 239 241 242 237 237 230
199 200 203 196 196 196 197 201 207 206 199 194 201 202 204 196 192 192 194 203 207 207 206 207 211 217 215 207 204 204 202 208 213 226 236 240 249 256 264 251 236 233 236